User: anonymous   Login
Location: Taipo
(41.0000°S, 175.9500°E)
Time: 16:37:59
(UTC+00:00)
Language:

Cosmos 1943 Rocket - Orbit

View from above orbital plane
View from above orbital plane
View from above satellite
View from above satellite

Ground track
Ground track

The orbit data is extracted from the following two-line orbital elements,

1 19120U 88039B   24165.84947035  .00000237  00000-0  13530-3 0  9996
2 19120  71.0152 328.6200 0023686 235.5151 124.3737 14.19416070868438
Epoch (UTC): 13 June 2024 20:23:14
Eccentricity: 0.0023686
inclination: 71.0152°
perigee height: 810 km
apogee height: 844 km
right ascension of ascending node: 328.6200°
argument of perigee: 235.5151°
revolutions per day: 14.19416070
mean anomaly at epoch: 124.3737°
orbit number at epoch: 86843

The dashed part of the orbit path shows where the satellite is in the earth's shadow,  

DLR